Regional Weather Roundup
Issued by NWS State College, PA

Home | Current Version | Previous Version | Text Only | Print | Product List | Glossary Off
Versions: 1 2 3 4 5 6 7 8 9 10 11 12 13 14 15 16 17 18 19 20 21 22 23 24 25 26 27 28 29 30 31 32 33 34 35 36 37 38 39 40 41 42 43 44 45 46 47 48 49 50

000
ASUS41 KCTP 251103
RWRCTP
REGIONAL WEATHER ROUNDUP
NATIONAL WEATHER SERVICE STATE COLLEGE PA
700 AM EDT MON SEP 25 2017

Note: "fair" indicates few or no clouds below 12,000 feet with no
significant weather and/or obstructions to visibility.

* = STATION THAT DOES NOT REPORT PRECIPITATION /E.G. RAIN...SNOW...ETC/
    THUNDER OR FOG.

PAZ002>004-007>009-013>016-020>023-029>032-251200-
WESTERN PENNSYLVANIA

CITY           SKY/WX    TMP DP  RH WIND       PRES   REMARKS
ERIE           MOCLDY    70  64  81 S10       30.08R
MEADVILLE      MOCLDY    69  64  84 E5        30.12R
FRANKLIN*      FOG       61  61 100 NE5       30.14R VSB 1/4
NEW CASTLE     FAIR      62  62 100 CALM      30.10S FOG
BEAVER COUNTY  CLEAR     68  61  77 CALM      30.10
BUTLER*        MOCLDY    64  61  90 NE3       30.11S
PITTSBURGH INT MOCLDY    65  62  90 CALM      30.10R
PITTSBURGH     CLOUDY    68  61  78 E3        30.09S
INDIANA*       CLEAR     63  61  94 CALM      30.14S
LATROBE        CLEAR     61  61 100 CALM      30.11R FOG
WASHINGTON CO*   N/A     57  55  94 CALM      30.10S VSB 1/4
$$

PAZ004>006-010>012-017>019-024>028-033>037-041-042-045-046-049>053-251200-
CENTRAL PENNSYLVANIA

CITY           SKY/WX    TMP DP  RH WIND       PRES   REMARKS
BRADFORD       FOG       56  55  97 CALM      30.17R VSB 1
DUBOIS         CLEAR     63  60  90 E6        30.14R
CLEARFIELD     CLEAR     60  60 100 N5        30.15R FOG
JOHNSTOWN      PTCLDY    66  62  87 CALM      30.15R
ALTOONA        PTCLDY    61  61 100 CALM      30.13S FOG
STATE COLLEGE  CLEAR     61  61 100 CALM      30.12R
WILLIAMSPORT   CLOUDY    64  62  93 CALM      30.09R
SELINSGROVE    CLEAR     61  61 100 N3        30.09R FOG
FT INDIANTOWN  CLEAR     71  67  87 CALM      30.04R
CAPITAL CITY   CLEAR     67  64  90 W5        30.06R
HARRISBURG     PTCLDY    70  68  93 N7        30.05R
YORK           CLEAR     60  60 100 CALM      30.06S FOG
$$

PAZ038>040-043-044-047-048-054-055-060>062-067>071-251200-
EASTERN PENNSYLVANIA

CITY           SKY/WX    TMP DP  RH WIND       PRES   REMARKS
SCRANTON       CLEAR     65  63  93 E5        30.11R
MOUNT POCONO   CLEAR     60  60 100 CALM      30.14R
ALLENTOWN      CLEAR     65  63  93 CALM      30.07R
QUAKERTOWN*    SUNNY     63  63 100 CALM      30.08R
READING        CLEAR     66  66 100 CALM      30.05R
LANCASTER      CLEAR     66  66 100 CALM      30.06R FOG
COATESVILLE    SUNNY     66  64  94 CALM      30.08R
POTTSTOWN      CLEAR     64  64 100 CALM      30.07R FOG
BLUE BELL        N/A     59  59 100 CALM      30.07R VSB 1/4
DOYLESTOWN     CLEAR     66  65  96 CALM      30.05R
WILLOW GROVE   NOT AVBL
NORTH PHILA    CLEAR     68  64  87 CALM      30.06R
PHILADELPHIA   PTCLDY    69  66  90 CALM      30.05R
$$



USA.gov is the U.S. government's official web portal to all federal, state and local government web resources and services.